{"data":{"norad_id":58489,"intl_designator":"2023-186S","name":"STARLINK-30993","alt_names":[],"object_type":"PAYLOAD","status":"ACTIVE","operator":null,"country":"US","launch_date":"2023-12-03","launch_site_code":"AFETR","launch_vehicle":null,"mission":null,"orbit_class":"UNKNOWN","rcs_meters":null,"size_class":null,"mass_kg":null,"dimensions":null,"purposes":["comms"],"wikipedia_slug":null,"has_3d_model":false,"image_url":null,"decayed_at":null,"tle_current":{"epoch":"2026-05-24T20:27:42.264000Z","epoch_age_seconds":94636,"freshness":"FRESH","line1":"1 58489U 23186S   26144.85257250  .00000249  00000+0  18588-4 0  9993","line2":"2 58489  43.0041 353.5812 0002025 274.7901  85.2720 15.27575243137538","mean_motion":15.27575243,"eccentricity":0.0002025,"inclination_deg":43.0041,"raan_deg":353.5812,"arg_perigee_deg":274.7901,"mean_anomaly_deg":85.272,"bstar":1.8588e-5,"rev_number":13753,"period_min":94.267042268372,"perigee_km":481.67394717704,"apogee_km":484.45273331484,"semimajor_km":6861.2003402459,"source":"CELESTRAK","updated_at":"2026-05-25T13:38:18.653335Z"}}}